This is the latest recevied weather packets stored in our database for station/object KD8PH. If no packets are shown the sender has not sent any weather packets the latest 10 day(s).
| Time | Temp. | Humidity | Pressure | Rain* | Wind** | Luminosity | Snow |
|---|---|---|---|---|---|---|---|
| 1777728942 | 13.33° C | 58% | 1013.8 hPa | 0.25 mm | - | - | - |
| 1777728352 | 13.89° C | 57% | 1013.8 hPa | 0.25 mm | - | - | - |
| 1777727751 | 13.89° C | 59% | 1013.9 hPa | 0.25 mm | - | - | - |
| 1777727149 | 13.33° C | 62% | 1013.9 hPa | 0.25 mm | - | - | - |
| 1777726547 | 13.33° C | 62% | 1013.8 hPa | 0 mm | - | - | - |
| 1777725948 | 12.78° C | 64% | 1013.8 hPa | 0 mm | - | - | - |
| 1777725337 | 12.22° C | 64% | 1013.7 hPa | 0 mm | - | - | - |
| 1777724738 | 12.22° C | 64% | 1013.6 hPa | 0 mm | - | - | - |
| 1777724138 | 12.22° C | 64% | 1013.6 hPa | 0 mm | - | - | - |
| 1777723534 | 12.22° C | 64% | 1013.5 hPa | 0 mm | - | - | - |
| 1777722947 | 12.22° C | 63% | 1013.3 hPa | 0 mm | - | - | - |
| 1777722346 | 12.22° C | 62% | 1013.2 hPa | 0 mm | - | - | - |
| 1777721736 | 11.67° C | 64% | 1013.1 hPa | 0 mm | - | - | - |
| 1777721147 | 11.67° C | 62% | 1013 hPa | 0 mm | - | - | - |
| 1777720534 | 12.22° C | 60% | 1012.9 hPa | 0 mm | - | - | - |
| 1777719946 | 12.22° C | 59% | 1013 hPa | 0 mm | - | - | - |
| 1777719334 | 12.22° C | 60% | 1012.9 hPa | 0 mm | - | - | - |
| 1777718754 | 12.22° C | 62% | 1012.9 hPa | 0 mm | - | - | - |
| 1777718140 | 12.22° C | 60% | 1013 hPa | 0 mm | - | - | - |
| 1777717537 | 12.22° C | 61% | 1012.9 hPa | 0 mm | - | - | - |
| 1777716934 | 12.22° C | 59% | 1012.7 hPa | 0.25 mm | - | - | - |
| 1777716338 | 12.22° C | 59% | 1012.7 hPa | 0.25 mm | - | - | - |
| 1777715743 | 12.22° C | 58% | 1012.3 hPa | 0.25 mm | - | - | - |
| 1777715134 | 12.22° C | 56% | 1012.2 hPa | 0.25 mm | - | - | - |
| 1777714535 | 12.78° C | 57% | 1012.5 hPa | 0.25 mm | - | - | - |
* Rain latest hour (hover to see other rain measurements)
** Current wind speed in m/s (hover to see current wind gust speed)